Regional Weather Roundup
Issued by NWS

Home | Current Version | Previous Version | Text Only | Print | Product List | Glossary Off
Versions: 1 2 3 4 5 6 7 8 9 10 11 12 13 14 15 16 17 18 19 20 21 22 23 24 25 26 27 28 29 30 31 32 33 34 35 36 37 38 39 40 41 42 43 44 45 46 47 48 49 50

000
ASUS45 KPSR 180700
RWRAZ

PRELIMINARY ARIZONA REGIONAL HOURLY WEATHER ROUNDUP
NATIONAL WEATHER SERVICE PHOENIX AZ
1200 AM MST THU DEC 18 2014

NOTE: FAIR INDICATES FEW OR NO CLOUDS BELOW 12,000 FEET WITH NO
SIGNIFICANT WEATHER AND/OR OBSTRUCTIONS TO VISIBILITY.

AZZ001>003-036-180800-
NORTHWEST ARIZONA

CITY           SKY/WX    TMP DP  RH WIND       PRES   REMARKS
KINGMAN        CLOUDY    40  36  86 S9        30.11S WCI  34
$$

AZZ004>008-015-016-018-180800-
NORTH CENTRAL ARIZONA

CITY           SKY/WX    TMP DP  RH WIND       PRES   REMARKS
GRAND CANYON   CLOUDY    31  31 100 S3        30.11S FOG
PRESCOTT       PTCLDY    34  30  85 S6        30.12S WCI  29
FLAGSTAFF      LGT SNOW  30  28  93 SW7       30.10S FOG     WCI  23
PAYSON         PTCLDY    34  34 100 E3        30.15S
PAGE           CLOUDY    37  33  85 CALM      30.10S
$$

AZZ009>014-017-180800-
NORTHEAST ARIZONA

CITY           SKY/WX    TMP DP  RH WIND       PRES   REMARKS
WINSLOW        NOT AVBL
SAINT JOHNS    CLOUDY    32  29  88 SE3       30.12S
WINDOW ROCK    MOCLDY    29  25  85 S3        30.11R
SHOW LOW       PTCLDY    28  27  93 CALM      30.14F
$$

AZZ023-180800-
GREATER PHOENIX AREA

CITY           SKY/WX    TMP DP  RH WIND       PRES   REMARKS
PHOENIX        PTCLDY    53  48  83 SE7       30.11F
LUKE AFB       CLEAR     47  47 100 NW6       30.12F
DEER VALLEY    CLOUDY    49  44  83 CALM      30.12S
SCOTTSDALE     PTCLDY    50  46  86 CALM      30.13F
MESA-GATEWAY   PTCLDY    50  48  93 SE3       30.15S
$$

AZZ027-028-180800-
SOUTHWEST MARICOPA COUNTY AND PINAL COUNTY

CITY           SKY/WX    TMP DP  RH WIND       PRES   REMARKS
CASA GRANDE    CLEAR     48  46  93 CALM      30.13F
GILA BEND      FAIR      47  47  97 S3        30.13S
$$

AZZ503-504-507>509-180800-
SOUTHEAST ARIZONA

CITY           SKY/WX    TMP DP  RH WIND       PRES   REMARKS
TUCSON         MOCLDY    48  46  93 CALM      30.15F
DAVIS-MONTHAN  MOCLDY    46  46 100 SE2       30.13F
NOGALES        CLOUDY    47  43  86 CALM      30.14F
SIERRA VISTA   FOG       43  43 100 CALM      30.15F VSB 1/4
SAFFORD        CLOUDY    45  43  93 CALM      30.15S
$$

AZZ020-021-025-026-031-180800-
SOUTHWEST ARIZONA

CITY           SKY/WX    TMP DP  RH WIND       PRES   REMARKS
YUMA           MOCLDY   N/A N/A N/A CALM      30.10F
$$

CAZ031-033-041-043-047-048-061-180800-
SOUTHERN CALIFORNIA

CITY           SKY/WX    TMP DP  RH WIND       PRES   REMARKS
DOWNTOWN L.A.  PTCLDY    52  46  80 CALM      30.11S
L.A. AIRPORT   PTCLDY    55  45  68 CALM      30.11S
SAN DIEGO      MOCLDY    58  45  62 CALM      30.16R
BURBANK        PTCLDY    49  43  80 CALM      30.11R
ONTARIO        MOCLDY    52  44  74 NE5       30.12S
RIVERSIDE      PTCLDY    51  45  79 CALM      30.12S
PALM SPRINGS   CLOUDY    56  49  77 N7        30.13R
EL CENTRO NAS  CLOUDY    52  51  97 CALM      30.10S FOG
IMPERIAL       CLOUDY    54  51  90 CALM      30.10S FOG
BLYTHE         CLOUDY    51  49  92 CALM      30.10S
$$

NVZ020-UTZ003-180800-
SOUTHERN NEVADA-UTAH

CITY           SKY/WX    TMP DP  RH WIND       PRES   REMARKS
LAS VEGAS      NOT AVBL
SALT LAKE CITY CLOUDY    34  31  88 E5        30.07S WCI  30
$$

NMZ009-TXZ055-180800-
NEW MEXICO-WEST TEXAS

CITY           SKY/WX    TMP DP  RH WIND       PRES   REMARKS
ALBUQUERQUE    PTCLDY    36  31  82 S6        30.11F WCI  31
EL PASO        PTCLDY    43  34  70 E3        30.13F
$$


........................KEY........................
SKY/WX - SKY CONDITION/WEATHER
TMP    - TEMPERATURE IN FAHRENHEIT
DP     - DEW POINT IN FAHRENHEIT
RH     - RELATIVE HUMIDITY IN PERCENT
WIND   - DIRECTION AND SPEED IN MILES PER HOUR (MPH)
VRB    - VARIABLE WIND DIRECTION
PRES   - MEAN SEA LEVEL PRESSURE IN INCHES OF MERCURY
         F - FALLING PRESSURE   R - RISING PRESSURE
         S - STEADY PRESSURE
VSB    - VISIBILITY IN MILES
HX     - HEAT INDEX IN FAHRENHEIT
WCI    - WIND CHILL INDEX IN FAHRENHEIT
TC     - TEMPERATURE IN CELSIUS WHICH IS ALSO KNOWN AS
         TEMPERATURE IN CENTIGRADE
AFB    - AIR FORCE BASE
         LUKE AFB IS LUKE AIR FORCE BASE
         DAVIS-MONTHAN IS DAVIS-MONTHAN AIR FORCE BASE
NAS    - NAVAL AIR STATION
         EL CENTRO NAS IS EL CENTRO NAVAL AIR STATION
N/A    - NOT AVAILABLE


USA.gov is the U.S. government's official web portal to all federal, state and local government web resources and services.